sat.trackr.live / text

‹ back to catalog

IRIDE FM8

NORAD 66702 · 2025-276AN

PAYLOAD ACTIVE UNKNOWN

§ Identity

Operator
Country
IT
Launch date
2025-11-28
Launch site
AFWTR
Launch vehicle
Mass (kg)
RCS (m²)

External: N2YO · Heavens-Above · Gunter

§ Orbital elements

Epoch: 2026-05-25T03:32:00.602016Z

Period
94.75 min
Inclination
97.4197°
Eccentricity
0.0005383
Mean motion
15.19841799 rev/d
Perigee alt
502.6 km
Apogee alt
510.0 km
Semi-major
6,884.5 km
B*
3.6717e-4
RAAN
219.0841°
Arg perigee
102.5719°
Mean anomaly
257.6118°
Rev number
2,692

§ Raw data

IRIDE FM81 66702U 25276AN  26145.14722919  .00007809  00000+0  36717-3 0  99962 66702  97.4197 219.0841 0005383 102.5719 257.6118 15.19841799 26922

JSON: /api/v1/satellites/66702 · /tle

For live sub-satellite position, see the globe view (requires WebGL).

§ Visibility from observer

Set your observer location to see the next 7 days of passes ≥ 10°. The values pass through the URL so the page stays shareable.

No JS? Fill the form by hand. The geolocation button needs JavaScript.